Location: Ostrava
(49.8330°N, 18.2830°E)
Time: 12:26:45
(UTC+02:00)

Explorer 7 - Visible Passes

Search period start: 26 September 2016 00:00
Search period end: 06 October 2016 00:00
Orbit: 486 x 686 km, 50.3° (Epoch: 25 September)

Date Brightness Start Highest point End Pass type
(mag) Time Alt. Az. Time Alt. Az. Time Alt. Az.
26 Sep 8.9 03:37:55 20° ESE 03:37:55 20° ESE 03:39:27 10° E visible
26 Sep 6.6 05:14:19 27° WSW 05:16:20 83° SSE 05:20:07 10° E visible
27 Sep 8.6 03:43:56 25° E 03:43:56 25° E 03:45:48 10° E visible
27 Sep 6.6 05:20:21 24° W 05:22:35 86° N 05:26:23 10° E visible
28 Sep 8.3 03:49:57 30° E 03:49:57 30° E 03:52:05 10° E visible
28 Sep 6.6 05:26:21 21° W 05:28:50 82° N 05:32:37 10° E visible
29 Sep 8.1 03:55:58 36° E 03:55:58 36° E 03:58:19 10° E visible
29 Sep 6.6 05:32:22 19° W 05:35:06 84° N 05:38:53 10° E visible
30 Sep 7.8 04:01:59 41° E 04:01:59 41° E 04:04:33 10° E visible
30 Sep 6.6 05:38:23 17° W 05:41:20 89° S 05:45:07 10° ESE visible
01 Oct 7.6 04:08:02 46° E 04:08:02 46° E 04:10:48 10° E visible
01 Oct 6.6 05:44:26 15° W 05:47:34 75° SSW 05:51:20 10° ESE visible
02 Oct 7.4 04:14:07 51° E 04:14:07 51° E 04:17:02 10° E visible
02 Oct 6.8 05:50:31 14° W 05:53:45 58° SSW 05:57:26 10° ESE visible
03 Oct 7.2 04:20:15 55° E 04:20:15 55° E 04:23:17 10° E visible
03 Oct 7.2 05:56:39 13° W 05:59:52 42° SSW 06:03:26 10° SE visible
04 Oct 7.1 04:26:27 56° ESE 04:26:27 56° ESE 04:29:30 10° ESE visible
04 Oct 7.7 06:02:51 12° W 06:05:56 30° SSW 06:09:15 10° SSE visible
05 Oct 7.2 04:32:43 49° SE 04:32:43 49° SE 04:35:39 10° ESE visible
05 Oct 8.2 06:09:09 10° W 06:11:57 20° SW 06:14:47 10° S visible
